• In Deutschland
  • Länderverzeichnis
  • Für 7 Tage
  • Wassertemperatur
  • Satellitenkarten
  • Wetterkarte
  • Widgets
  • user-avatar
    Anmelden

    Stündliche Wetter Goldehe Sande

    Heute, 21 September, Donnerstag

    Zeit Temperatur Niederschläge Wind Luftdruck Luftfeuchtigkeit
    00:00 +23°C° 0 mm 6 m/S 753 mmHg 83%
    01:00 +22°C° 0 mm 6 m/S 753 mmHg 84%
    02:00 +21°C° 0 mm 7 m/S 754 mmHg 68%
    03:00 +20°C° 0 mm 8 m/S 754 mmHg 64%
    04:00 +20°C° 0 mm 8 m/S 754 mmHg 61%
    05:00 +18°C° 0 mm 8 m/S 755 mmHg 58%
    06:00 +18°C° 0 mm 7 m/S 755 mmHg 56%
    07:00 +20°C° 0 mm 7 m/S 755 mmHg 55%
    08:00 +20°C° 0 mm 7 m/S 755 mmHg 52%
    09:00 +20°C° 0 mm 7 m/S 756 mmHg 49%
    10:00 +21°C° 0 mm 7 m/S 756 mmHg 47%
    11:00 +22°C° 0 mm 7 m/S 756 mmHg 45%
    12:00 +23°C° 0 mm 6 m/S 756 mmHg 42%
    13:00 +25°C° 0 mm 5 m/S 756 mmHg 38%
    14:00 +25°C° 0 mm 5 m/S 757 mmHg 38%
    15:00 +25°C° 0 mm 5 m/S 756 mmHg 39%
    16:00 +25°C° 0 mm 4 m/S 756 mmHg 39%
    17:00 +25°C° 0 mm 4 m/S 756 mmHg 39%
    18:00 +22°C° 0 mm 5 m/S 757 mmHg 42%
    19:00 +21°C° 0 mm 5 m/S 757 mmHg 45%
    20:00 +19°C° 0 mm 6 m/S 757 mmHg 48%
    21:00 +17°C° 0 mm 7 m/S 758 mmHg 51%
    22:00 +17°C° 0 mm 8 m/S 758 mmHg 54%
    23:00 +16°C° 0 mm 8 m/S 758 mmHg 57%

    Morgen, 22 September, Freitag

    Zeit Temperatur Niederschläge Wind Luftdruck Luftfeuchtigkeit
    00:00 +15°C° 0 mm 9 m/S 758 mmHg 59%
    01:00 +15°C° 0 mm 9 m/S 758 mmHg 62%
    02:00 +13°C° 0 mm 9 m/S 758 mmHg 64%
    03:00 +13°C° 0 mm 9 m/S 759 mmHg 65%
    04:00 +13°C° 0 mm 9 m/S 759 mmHg 66%
    05:00 +13°C° 0 mm 9 m/S 759 mmHg 67%
    06:00 +13°C° 0 mm 9 m/S 759 mmHg 65%
    07:00 +15°C° 0 mm 9 m/S 759 mmHg 62%
    08:00 +15°C° 0 mm 9 m/S 759 mmHg 60%
    09:00 +17°C° 0 mm 9 m/S 759 mmHg 54%
    10:00 +18°C° 0 mm 8 m/S 759 mmHg 49%
    11:00 +21°C° 0 mm 8 m/S 759 mmHg 43%
    12:00 +21°C° 0 mm 7 m/S 759 mmHg 41%
    13:00 +22°C° 0 mm 7 m/S 759 mmHg 39%
    14:00 +23°C° 0 mm 7 m/S 759 mmHg 37%
    15:00 +22°C° 0 mm 7 m/S 759 mmHg 40%
    16:00 +21°C° 0 mm 7 m/S 759 mmHg 42%
    17:00 +20°C° 0 mm 8 m/S 759 mmHg 45%
    18:00 +20°C° 0 mm 8 m/S 760 mmHg 49%
    19:00 +18°C° 0 mm 8 m/S 760 mmHg 53%
    20:00 +17°C° 0 mm 8 m/S 760 mmHg 58%
    21:00 +16°C° 0 mm 8 m/S 761 mmHg 59%
    22:00 +16°C° 0 mm 8 m/S 761 mmHg 61%
    23:00 +15°C° 0 mm 8 m/S 761 mmHg 62%

    übermorgen, 23 September, Samstag

    Zeit Temperatur Niederschläge Wind Luftdruck Luftfeuchtigkeit
    00:00 +15°C° 0 mm 8 m/S 761 mmHg 65%
    01:00 +14°C° 0 mm 7 m/S 761 mmHg 67%
    02:00 +14°C° 0 mm 7 m/S 762 mmHg 70%
    03:00 +12°C° 0 mm 7 m/S 762 mmHg 71%
    04:00 +12°C° 0 mm 7 m/S 762 mmHg 73%
    05:00 +13°C° 0 mm 6 m/S 762 mmHg 75%
    06:00 +14°C° 0 mm 6 m/S 762 mmHg 72%
    07:00 +14°C° 0 mm 6 m/S 762 mmHg 68%
    08:00 +15°C° 0 mm 6 m/S 763 mmHg 65%
    09:00 +17°C° 0 mm 5 m/S 763 mmHg 57%
    10:00 +20°C° 0 mm 5 m/S 763 mmHg 50%
    11:00 +22°C° 0 mm 4 m/S 763 mmHg 43%
    12:00 +22°C° 0 mm 4 m/S 763 mmHg 42%
    13:00 +22°C° 0 mm 4 m/S 762 mmHg 41%
    14:00 +23°C° 0 mm 4 m/S 762 mmHg 40%
    15:00 +22°C° 0 mm 4 m/S 762 mmHg 42%
    16:00 +22°C° 0 mm 4 m/S 762 mmHg 43%
    17:00 +22°C° 0 mm 5 m/S 762 mmHg 45%
    18:00 +20°C° 0 mm 4 m/S 763 mmHg 49%
    19:00 +19°C° 0 mm 4 m/S 763 mmHg 53%
    20:00 +18°C° 0 mm 3 m/S 763 mmHg 57%
    21:00 +18°C° 0 mm 4 m/S 763 mmHg 58%
    22:00 +17°C° 0 mm 4 m/S 763 mmHg 59%
    23:00 +17°C° 0 mm 4 m/S 763 mmHg 60%

    24 September, Sonntag

    Zeit Temperatur Niederschläge Wind Luftdruck Luftfeuchtigkeit
    00:00 +17°C° 0 mm 4 m/S 763 mmHg 60%
    01:00 +15°C° 0 mm 4 m/S 763 mmHg 60%
    02:00 +15°C° 0 mm 4 m/S 763 mmHg 60%
    03:00 +16°C° 0 mm 3 m/S 763 mmHg 60%
    04:00 +16°C° 0 mm 3 m/S 763 mmHg 60%
    05:00 +14°C° 0 mm 3 m/S 763 mmHg 60%
    06:00 +17°C° 0 mm 3 m/S 764 mmHg 55%
    07:00 +18°C° 0 mm 2 m/S 764 mmHg 50%
    08:00 +19°C° 0 mm 2 m/S 764 mmHg 45%
    09:00 +21°C° 0 mm 2 m/S 764 mmHg 41%
    10:00 +23°C° 0 mm 2 m/S 764 mmHg 36%
    11:00 +25°C° 0 mm 2 m/S 764 mmHg 32%
    12:00 +25°C° 0 mm 2 m/S 764 mmHg 32%
    13:00 +26°C° 0 mm 3 m/S 764 mmHg 32%
    14:00 +26°C° 0 mm 3 m/S 764 mmHg 32%
    15:00 +26°C° 0 mm 3 m/S 764 mmHg 37%
    16:00 +25°C° 0 mm 4 m/S 764 mmHg 42%
    17:00 +23°C° 0 mm 4 m/S 764 mmHg 48%
    18:00 +22°C° 0 mm 4 m/S 764 mmHg 55%
    19:00 +21°C° 0 mm 4 m/S 764 mmHg 62%
    20:00 +19°C° 0 mm 4 m/S 764 mmHg 68%
    21:00 +19°C° 0 mm 4 m/S 764 mmHg 69%
    22:00 +19°C° 0 mm 3 m/S 764 mmHg 70%
    23:00 +19°C° 0 mm 3 m/S 764 mmHg 70%

    25 September, Montag

    Zeit Temperatur Niederschläge Wind Luftdruck Luftfeuchtigkeit
    00:00 +19°C° 0 mm 3 m/S 764 mmHg 70%
    01:00 +18°C° 0 mm 3 m/S 764 mmHg 71%
    02:00 +18°C° 0 mm 3 m/S 764 mmHg 71%
    03:00 +18°C° 0 mm 3 m/S 764 mmHg 71%
    04:00 +18°C° 0 mm 4 m/S 763 mmHg 72%
    05:00 +16°C° 0 mm 5 m/S 763 mmHg 72%
    06:00 +19°C° 0 mm 5 m/S 764 mmHg 67%
    07:00 +20°C° 0 mm 5 m/S 764 mmHg 63%
    08:00 +21°C° 0 mm 6 m/S 764 mmHg 58%
    09:00 +22°C° 0 mm 6 m/S 764 mmHg 54%
    10:00 +23°C° 0 mm 6 m/S 764 mmHg 51%
    11:00 +24°C° 0 mm 6 m/S 764 mmHg 47%
    12:00 +26°C° 0 mm 6 m/S 763 mmHg 47%
    13:00 +26°C° 0 mm 7 m/S 763 mmHg 47%
    14:00 +26°C° 0 mm 7 m/S 763 mmHg 47%
    15:00 +24°C° 0 mm 7 m/S 763 mmHg 50%
    16:00 +24°C° 0 mm 7 m/S 763 mmHg 54%
    17:00 +23°C° 0 mm 7 m/S 763 mmHg 58%
    18:00 +22°C° 0 mm 6 m/S 763 mmHg 63%
    19:00 +21°C° 0 mm 6 m/S 763 mmHg 69%
    20:00 +20°C° 0 mm 6 m/S 763 mmHg 74%
    21:00 +20°C° 0 mm 6 m/S 762 mmHg 76%
    22:00 +20°C° 0 mm 6 m/S 762 mmHg 78%
    23:00 +19°C° 0 mm 5 m/S 762 mmHg 80%

    26 September, Dienstag

    Zeit Temperatur Niederschläge Wind Luftdruck Luftfeuchtigkeit
    00:00 +19°C° 0 mm 5 m/S 762 mmHg 81%
    01:00 +17°C° 0 mm 6 m/S 761 mmHg 82%
    02:00 +17°C° 0 mm 6 m/S 761 mmHg 83%
    03:00 +17°C° 0 mm 6 m/S 761 mmHg 83%
    04:00 +16°C° 0 mm 6 m/S 761 mmHg 83%
    05:00 +16°C° 0 mm 7 m/S 761 mmHg 84%
    06:00 +17°C° 0 mm 7 m/S 761 mmHg 78%
    07:00 +18°C° 0 mm 7 m/S 761 mmHg 72%
    08:00 +20°C° 0 mm 7 m/S 761 mmHg 67%
    09:00 +21°C° 0 mm 6 m/S 761 mmHg 63%
    10:00 +23°C° 0 mm 6 m/S 761 mmHg 59%
    11:00 +26°C° 0 mm 6 m/S 761 mmHg 55%
    12:00 +24°C° 0,1 mm 7 m/S 761 mmHg 57%
    13:00 +24°C° 0,1 mm 7 m/S 761 mmHg 59%
    14:00 +23°C° 0,1 mm 8 m/S 761 mmHg 61%
    15:00 +23°C° 0,1 mm 8 m/S 761 mmHg 62%
    16:00 +22°C° 0,1 mm 8 m/S 761 mmHg 63%
    17:00 +21°C° 0,1 mm 8 m/S 761 mmHg 65%
    18:00 +21°C° 0 mm 8 m/S 762 mmHg 65%
    19:00 +20°C° 0 mm 8 m/S 762 mmHg 66%
    20:00 +18°C° 0 mm 8 m/S 762 mmHg 67%
    21:00 +18°C° 0 mm 8 m/S 762 mmHg 65%
    22:00 +17°C° 0 mm 8 m/S 762 mmHg 62%
    23:00 +17°C° 0 mm 7 m/S 762 mmHg 60%
    Mehr zeigen